Погода в Манойлине

Россия / Волгоградская область     49°00′37″N   42°54′23″E
темп.,
°C
ветер,
м/с
пор.,
м/с
влажн.,
%
обл.,
%
осадки,
мм/ч
давл.,
гПа
погр.,
м
19 апреля, пн
пн1900:00+10ю1280100 0.5 1017131
03:00+9ссв3689100 1.8 1016312
06:00+9св3691100 0.5 1015313
09:00+9св3590100 0.7 1015315
12:00+12ссв218099 0.1 1014558
15:00+14ссв2264100 0.2 1013996
18:00+11св458486 0.1 1013299
21:00+9всв3595100 0.1 1014124
20 апреля, вт
вт2000:00+9всв3597100 0.0 1014137
03:00+10в3696100 0.0 1013230
06:00+10в4797100 0.0 1012334
09:00+12в6894100 0.3 1011607
12:00+12вюв61196100 4.3 1010671
15:00+13вюв111795100 8.3 1007903
18:00+14юв91691100 0.9 1006963
21:00+13ююв101789100 3.3 1007910
21 апреля, ср
ср2100:00+12ю8159575 0.8 1008636
03:00+9ююз9148419 0.9 1010912
06:00+8ююз71288100 0.0 1013811
09:00+12зюз797494 0.0 1014991
12:00+14юз7860100 0.1 10151467
15:00+16зюз675196 0.1 10161891
18:00+13юз467079 0.6 1017392
21:00+10ююз358547 1.5 101983
22 апреля, чт
чт2200:00+8юз36905 0.0 101997
03:00+8зюз33915 0.0 102047
06:00+8зюз348747 0.0 102186
09:00+13зюз34652 0.0 1022605
12:00+16з335045 0.1 10211663
15:00+17зюз3344100 0.2 10212096
18:00+14зюз2259100 0.0 102224
21:00+13зюз2262100 0.0 102334
23 апреля, пт
пт2300:00+13з1161100 0.0 102310
03:00+12зсз1265100 0.1 102310
06:00+11с2267100 0.0 102319
09:00+15в2251100 0.1 1023496
12:00+17юз224141 0.5 10232027
15:00+16з225399 0.6 1022590
18:00+14ююз456692 0.4 1022230
21:00+12вюв22705 0.9 102212